Temp
4 5 4 5 5 5 5 5 5 5 6 6 7 7 8 8 8 9 9 9 9 9 10 10 10 10 11 10 10 10 10 10 10 10 10 10 10 10 10 11 11 11 10 11 10 10 10
4 4 4 4 4 5 5 5 5 5 6 6 6 7 7 8 8 8 9 9 9 9 9 10 10 10 10 10 10 10 10 10 10 10 10 10 10 10 10 10 10 10 10 11 10 10 10
4 4 4 4 4 5 5 5 5 5 5 6 6 6 7 7 7 8 8 8 9 9 9 9 10 10 10 10 10 10 10 10 10 10 10 9 10 10 10 9 9 10 9 9 11 9 9
3 3 3 4 4 4 4 4 4 5 5 5 6 6 6 6 7 7 8 8 8 9 9 9 9 9 10 10 9 10 10 10 10 9 9 9 9 9 9 9 8 8 9 10 11 9 9
3 3 3 3 4 4 4 4 4 4 5 5 5 5 5 5 6 7 7 8 8 8 8 8 9 8 9 9 9 9 9 9 9 9 9 8 8 8 8 8 9 10 10 10 9 9 8
2 2 3 3 3 4 4 4 4 4 4 4 4 4 5 5 5 6 6 7 7 7 8 8 8 8 8 8 8 7 8 8 8 8 8 8 7 7 8 8 10 9 9 9 9 8 8
2 2 3 3 3 3 4 3 3 4 4 4 4 4 4 5 5 5 6 6 7 7 8 8 7 7 7 7 7 8 8 7 7 7 7 6 7 8 8 7 6 6 7 7 8 7 6
2 2 3 3 2 3 3 3 3 3 3 3 3 4 4 4 5 5 6 6 6 6 7 7 7 7 7 7 7 8 8 7 7 6 7 7 7 7 6 5 5 6 6 7 7 7 6
2 2 2 2 2 3 2 2 2 2 3 3 3 4 4 5 5 5 6 6 6 7 7 7 7 7 7 7 7 7 7 7 6 6 6 6 7 5 5 5 6 6 6 6 6 6 6
1 2 2 1 2 2 2 2 2 2 3 3 4 4 5 4 5 5 5 6 6 6 6 6 5 6 5 6 5 5 5 6 5 5 6 5 5 5 5 5 5 6 6 5 5 5 7
1 1 2 1 1 2 1 1 2 2 3 3 3 4 4 5 5 5 5 5 5 6 7 5 4 5 5 5 5 5 5 5 4 4 5 5 4 4 4 4 4 5 4 4 5 5 6
-1 0 1 0 0 0 1 1 2 2 2 3 3 4 4 5 5 4 4 5 5 5 6 4 4 4 4 4 4 4 4 4 4 4 4 4 4 4 4 4 3 3 4 5 6 6 7
-1 -1 -0 -0 -0 -0 1 0 1 2 2 3 3 4 5 5 4 4 4 4 4 4 5 3 3 3 3 3 4 4 3 4 4 4 4 3 3 2 3 3 3 3 4 6 8 8 9
-2 -2 -1 -0 -1 -1 -0 -0 1 1 2 2 3 4 4 4 4 4 4 3 3 4 4 4 3 3 3 3 3 3 2 1 2 2 3 3 5 2 2 2 2 2 2 4 5 7 7
-2 -3 -1 -2 -1 -1 -1 0 1 0 2 2 3 4 3 3 3 3 3 3 4 4 4 3 3 2 2 3 2 2 2 1 1 1 1 1 2 2 1 2 1 3 2 2 2 3 4
-2 -2 -2 -2 -1 -1 -1 -1 -0 0 2 3 3 3 2 3 3 3 2 3 3 3 4 3 1 2 1 1 1 1 -0 -0 0 0 -0 -2 -1 -0 0 -0 0 0 1 2 2 2 4
-2 -2 -2 -2 -3 -2 -1 -2 -0 1 1 2 2 2 2 2 2 2 2 2 3 3 2 2 1 1 1 1 1 0 -1 -1 -0 -1 -1 -1 -2 -0 -2 -0 0 0 1 0 0 1 4
-2 -2 -2 -2 -1 -0 0 1 0 1 1 1 1 1 2 2 2 2 2 2 3 2 2 2 1 1 0 0 -0 -1 -2 -1 -1 -1 -3 -2 -2 -2 -1 -1 -2 -2 -2 -1 0 1 1
-2 -2 -1 -1 -2 -1 -1 -1 -0 0 0 0 0 1 1 1 1 2 2 2 2 1 1 1 1 0 0 -0 -1 -2 -1 -1 -1 -2 -2 -4 -3 -2 2 -1 -2 -2 -2 -3 -3 -3 -2
-4 -4 -3 -3 -2 -2 -2 -1 -1 -0 -0 -0 0 0 1 1 1 1 1 1 1 1 0 0 0 -0 -1 -1 -1 -2 -3 -2 -2 -3 -3 -5 -5 -4 -2 -1 -3 -3 -3 -3 -4 -4 -3
-4 -4 -3 -3 -3 -3 -2 -2 -1 -0 -1 -1 -0 1 1 1 0 0 1 1 1 0 -0 -0 -1 -1 -1 -2 -2 -2 -2 -3 -3 -3 -4 -5 -5 -4 -4 -5 -5 -5 -5 -6 -5 -5 -5
-4 -4 -4 -4 -3 -3 -3 -2 -1 -0 -1 -1 -0 0 1 1 1 -0 0 0 0 0 -0 -0 -1 -1 -2 -2 -3 -4 -3 -3 -4 -4 -5 -7 -7 -7 -6 -6 -6 -6 -6 -6 -6 -6 -5
-4 -4 -4 -3 -3 -3 -2 -2 -2 -1 -1 -1 -1 -0 -0 0 0 -0 -0 -0 0 -0 -1 -1 -2 -2 -2 -2 -2 -3 -2 -3 -4 -4 -6 -8 -8 -8 -7 -6 -7 -6 -5 -5 -5 -5 -5
-5 -5 -4 -4 -3 -3 -3 -3 -2 -2 -2 -2 -1 -1 -1 -0 -1 -1 -1 -1 -1 -1 -2 -2 -2 -2 -2 -2 -3 -3 -3 -3 -3 -4 -5 -6 -8 -8 -8 -7 -6 -4 -5 -6 -6 -6 -6
-6 -5 -5 -4 -4 -3 -3 -3 -3 -3 -2 -2 -2 -2 -1 -1 -1 -1 -1 -1 -2 -2 -3 -2 -2 -2 -3 -3 -4 -4 -4 -4 -4 -4 -5 -6 -9 -8 -8 -7 -6 -6 -5 -5 -6 -6 -6
-6 -6 -5 -5 -4 -4 -4 -3 -3 -3 -3 -2 -2 -2 -2 -2 -1 -1 -2 -2 -2 -3 -3 -3 -3 -3 -4 -5 -5 -5 -6 -7 -7 -7 -7 -8 -9 -8 -8 -8 -6 -4 -6 -7 -7 -7 -6
-6 -6 -6 -6 -5 -5 -4 -4 -4 -3 -3 -3 -3 -2 -2 -2 -2 -2 -2 -3 -3 -3 -4 -3 -3 -4 -5 -5 -6 -8 -8 -7 -7 -7 -6 -8 -8 -8 -8 -8 -7 -6 -7 -7 -7 -5 -6
-6 -6 -6 -7 -7 -6 -5 -5 -4 -4 -4 -4 -3 -3 -3 -3 -3 -3 -3 -4 -4 -4 -4 -4 -5 -5 -5 -6 -7 -7 -8 -8 -9 -8 -7 -8 -7 -7 -7 -7 -7 -6 -7 -8 -8 -8 -8
-7 -7 -7 -7 -6 -6 -6 -6 -5 -5 -5 -4 -4 -4 -4 -4 -4 -4 -4 -4 -5 -4 -4 -5 -5 -5 -5 -6 -7 -8 -8 -9 -9 -8 -8 -8 -8 -8 -8 -7 -7 -8 -9 -9 -10 -10 -9
Height
3117 3123 3129 3134 3139 3142 3146 3151 3154 3158 3162 3165 3168 3171 3173 3176 3178 3179 3180 3181 3182 3183 3184 3185 3185 3185 3186 3186 3185 3184 3183 3182 3182 3182 3182 3181 3181 3181 3181 3180 3179 3177 3177 3176 3174 3173 3172
3114 3119 3125 3131 3136 3139 3144 3148 3152 3155 3159 3162 3165 3168 3171 3173 3175 3177 3178 3180 3181 3182 3183 3183 3184 3184 3184 3185 3183 3181 3181 3180 3179 3179 3179 3178 3177 3177 3176 3176 3176 3173 3173 3173 3172 3170 3166
3109 3115 3120 3127 3132 3136 3140 3144 3149 3153 3156 3159 3163 3166 3168 3170 3173 3175 3176 3178 3179 3180 3181 3181 3181 3181 3181 3182 3180 3179 3178 3177 3177 3176 3176 3174 3174 3175 3173 3172 3170 3169 3169 3169 3170 3167 3165
3104 3110 3116 3122 3128 3132 3135 3140 3145 3149 3154 3157 3161 3164 3167 3169 3171 3172 3174 3176 3176 3177 3178 3178 3178 3177 3177 3176 3175 3174 3173 3173 3173 3172 3172 3171 3170 3171 3171 3170 3168 3168 3167 3166 3166 3164 3162
3099 3106 3112 3118 3124 3129 3132 3136 3141 3146 3150 3154 3158 3161 3164 3167 3168 3170 3171 3173 3174 3175 3175 3175 3175 3173 3172 3170 3168 3168 3168 3169 3168 3167 3167 3167 3167 3168 3167 3168 3167 3165 3163 3163 3163 3162 3159
3093 3100 3107 3115 3119 3125 3128 3132 3138 3142 3147 3151 3155 3159 3161 3164 3166 3167 3169 3170 3171 3171 3171 3171 3169 3171 3169 3167 3165 3164 3165 3165 3165 3164 3164 3164 3164 3166 3166 3166 3163 3161 3161 3160 3158 3158 3153
3088 3095 3102 3109 3115 3122 3125 3129 3135 3139 3144 3148 3152 3156 3159 3160 3162 3165 3167 3168 3171 3170 3168 3167 3167 3165 3164 3164 3164 3162 3162 3162 3161 3162 3163 3161 3164 3163 3163 3162 3160 3160 3159 3156 3155 3152 3147
3083 3089 3097 3104 3111 3118 3121 3127 3132 3137 3141 3145 3150 3153 3155 3158 3159 3160 3163 3164 3166 3167 3163 3161 3160 3160 3159 3160 3159 3157 3159 3160 3160 3161 3159 3162 3161 3160 3158 3157 3157 3157 3155 3152 3150 3148 3144
3078 3086 3093 3100 3107 3112 3117 3123 3129 3135 3139 3142 3146 3149 3152 3154 3155 3157 3157 3159 3160 3160 3159 3156 3155 3155 3156 3157 3155 3155 3155 3155 3156 3157 3158 3159 3160 3156 3156 3156 3155 3154 3152 3149 3146 3142 3139
3075 3084 3090 3097 3104 3108 3114 3121 3127 3131 3136 3139 3143 3145 3148 3149 3153 3152 3153 3153 3155 3155 3155 3153 3152 3152 3152 3152 3154 3152 3152 3155 3154 3154 3153 3155 3154 3153 3154 3153 3153 3150 3148 3145 3143 3139 3133
3070 3079 3088 3094 3100 3106 3111 3118 3124 3128 3132 3136 3139 3142 3144 3145 3146 3148 3150 3150 3152 3153 3152 3151 3148 3148 3149 3152 3151 3151 3151 3152 3152 3152 3155 3154 3153 3152 3152 3150 3148 3148 3143 3141 3139 3135 3130
3067 3075 3082 3091 3096 3103 3108 3114 3120 3124 3128 3132 3135 3138 3140 3141 3142 3144 3146 3148 3151 3155 3147 3147 3146 3146 3148 3148 3149 3150 3150 3150 3150 3150 3151 3151 3149 3148 3147 3145 3145 3143 3141 3137 3132 3130 3125
3066 3072 3080 3087 3093 3099 3105 3110 3116 3121 3124 3129 3132 3134 3136 3137 3139 3141 3144 3147 3151 3148 3146 3145 3144 3145 3146 3146 3147 3148 3148 3148 3150 3151 3150 3148 3147 3144 3144 3145 3143 3142 3140 3132 3124 3121 3116
3061 3068 3077 3082 3090 3095 3100 3106 3110 3116 3121 3125 3128 3130 3132 3134 3136 3138 3142 3146 3146 3142 3141 3141 3142 3144 3144 3145 3145 3145 3145 3146 3146 3147 3148 3147 3145 3143 3142 3142 3142 3140 3141 3137 3128 3119 3115
3057 3064 3071 3080 3085 3089 3096 3102 3107 3112 3116 3122 3124 3126 3129 3131 3133 3136 3140 3142 3139 3140 3140 3140 3142 3142 3143 3143 3144 3143 3143 3144 3144 3144 3148 3146 3143 3139 3139 3138 3139 3137 3137 3135 3132 3125 3118
3055 3060 3068 3074 3079 3084 3089 3094 3102 3108 3113 3115 3118 3123 3126 3128 3131 3134 3136 3137 3136 3137 3138 3138 3141 3141 3143 3141 3143 3142 3142 3142 3142 3142 3143 3142 3139 3135 3135 3134 3135 3133 3132 3130 3126 3119 3107
3055 3058 3065 3068 3074 3082 3086 3090 3098 3103 3107 3109 3116 3119 3122 3124 3128 3130 3132 3134 3133 3134 3136 3138 3137 3139 3140 3140 3141 3141 3140 3140 3140 3140 3140 3140 3138 3136 3132 3131 3130 3128 3125 3124 3122 3117 3105
3053 3059 3065 3069 3074 3080 3085 3089 3094 3098 3102 3108 3112 3116 3118 3121 3125 3125 3128 3130 3130 3131 3133 3134 3135 3136 3137 3138 3138 3139 3138 3137 3137 3138 3138 3138 3134 3128 3129 3126 3121 3120 3119 3118 3115 3110 3105
3051 3057 3064 3068 3071 3076 3083 3086 3090 3095 3100 3105 3109 3113 3115 3118 3120 3121 3124 3126 3128 3128 3129 3130 3132 3133 3134 3135 3137 3136 3134 3133 3135 3135 3135 3134 3134 3127 3119 3121 3119 3119 3117 3115 3114 3111 3101
3053 3055 3062 3067 3070 3073 3080 3082 3089 3093 3097 3101 3108 3109 3110 3115 3116 3118 3121 3122 3124 3124 3125 3127 3129 3131 3131 3132 3133 3131 3130 3129 3130 3131 3132 3129 3130 3129 3123 3119 3121 3113 3111 3112 3111 3103 3095
3053 3056 3058 3064 3069 3073 3077 3081 3086 3091 3094 3099 3101 3103 3105 3110 3113 3115 3117 3118 3120 3122 3122 3124 3125 3127 3128 3130 3130 3129 3128 3125 3125 3126 3126 3127 3123 3120 3119 3114 3111 3104 3102 3103 3099 3091 3087
3055 3058 3062 3064 3067 3070 3073 3081 3081 3089 3092 3096 3098 3100 3105 3108 3109 3112 3113 3115 3116 3117 3119 3120 3121 3125 3126 3125 3125 3125 3123 3122 3122 3120 3121 3122 3117 3112 3108 3106 3101 3094 3093 3091 3084 3080 3075
3052 3058 3060 3064 3068 3070 3073 3076 3081 3084 3089 3092 3095 3099 3101 3102 3104 3109 3111 3112 3111 3114 3115 3116 3119 3120 3119 3118 3119 3119 3117 3117 3117 3117 3116 3117 3114 3111 3098 3097 3094 3090 3081 3078 3073 3069 3067
3052 3055 3059 3063 3066 3069 3072 3074 3078 3082 3086 3090 3092 3094 3098 3099 3102 3102 3107 3110 3109 3109 3111 3110 3113 3115 3115 3114 3114 3113 3112 3111 3110 3110 3108 3108 3111 3110 3097 3095 3083 3077 3074 3070 3064 3063 3059
3052 3055 3059 3061 3064 3068 3071 3075 3076 3080 3082 3086 3088 3093 3093 3095 3097 3100 3103 3104 3103 3105 3107 3108 3108 3111 3111 3110 3110 3110 3108 3107 3104 3103 3102 3102 3106 3105 3099 3089 3073 3068 3065 3064 3058 3051 3052
3051 3054 3057 3061 3064 3067 3069 3073 3076 3078 3081 3082 3086 3088 3090 3092 3093 3097 3098 3100 3100 3102 3105 3103 3103 3106 3107 3107 3106 3107 3105 3103 3104 3102 3100 3100 3098 3100 3094 3087 3071 3059 3059 3056 3051 3040 3044
3050 3054 3056 3060 3063 3065 3068 3071 3073 3076 3078 3079 3082 3082 3086 3087 3089 3092 3092 3096 3098 3099 3101 3098 3099 3102 3103 3103 3104 3102 3103 3101 3099 3100 3098 3097 3094 3090 3087 3080 3063 3055 3053 3051 3047 3040 3037
3049 3051 3055 3058 3061 3064 3067 3069 3071 3072 3074 3077 3077 3079 3082 3083 3084 3086 3088 3092 3095 3096 3097 3096 3099 3097 3098 3100 3100 3100 3099 3099 3096 3094 3091 3092 3088 3082 3076 3072 3060 3051 3048 3046 3036 3027 3025
3049 3051 3053 3056 3057 3060 3064 3066 3068 3070 3071 3072 3074 3075 3077 3080 3081 3082 3084 3087 3091 3091 3093 3092 3095 3091 3092 3094 3097 3096 3095 3093 3093 3089 3086 3084 3079 3075 3072 3057 3048 3043 3036 3026 3020 3010 3003
Wind_Speed
38 36 34 33 32 29 26 24 22 20 20 19 19 18 18 18 17 16 15 14 13 11 10 9 8 8 7 7 9 12 11 12 13 13 14 14 14 13 11 13 15 16 14 17 17 19 18
39 37 36 34 32 30 27 24 23 21 20 20 20 19 19 18 17 16 15 14 12 10 9 10 10 10 10 9 12 11 11 12 13 14 14 15 17 16 18 18 17 19 21 20 19 20 22
40 39 36 35 33 30 28 25 23 21 21 21 21 20 19 19 18 17 15 13 12 10 9 11 14 15 16 16 17 17 17 17 17 16 15 17 18 18 20 18 20 17 22 21 18 10 14
41 39 38 36 34 32 29 26 24 22 22 22 22 22 20 19 18 17 16 14 13 12 13 15 17 19 21 21 22 23 24 24 23 22 22 22 20 20 19 21 19 18 18 14 8 16 14
42 40 39 38 36 34 31 27 25 24 23 23 22 22 21 20 19 18 15 15 14 14 16 20 24 21 20 20 20 20 19 19 20 21 21 20 19 18 18 15 19 16 18 19 19 16 20
44 42 41 39 37 36 32 29 27 25 24 23 22 21 21 19 19 19 16 15 14 16 19 23 24 17 13 16 17 20 19 19 19 19 18 19 19 14 13 14 21 21 22 24 26 23 27
46 44 43 41 38 38 33 31 30 28 25 23 22 22 21 20 19 19 18 16 15 19 21 20 20 19 18 13 15 18 17 15 15 17 13 14 10 14 16 15 15 17 20 24 24 23 24
47 46 45 42 41 40 35 33 31 29 27 24 22 20 21 22 24 25 24 22 20 21 21 23 22 20 19 18 19 20 17 16 13 9 15 13 14 14 15 13 12 15 21 24 23 21 24
48 47 46 43 43 41 37 35 33 30 27 24 22 20 17 18 22 25 24 23 25 21 19 20 18 15 14 14 12 12 12 12 14 13 14 15 14 18 17 17 17 18 18 21 24 26 25
44 46 45 42 44 41 37 34 33 30 27 26 24 21 23 22 21 20 18 17 17 15 9 11 12 12 10 9 8 7 6 4 4 3 6 6 11 10 10 13 15 19 18 18 21 24 27
52 48 46 42 44 42 38 35 33 31 29 26 25 19 15 19 19 16 14 13 10 8 5 6 10 11 8 8 7 6 5 5 4 7 5 5 6 9 11 8 11 16 17 19 22 25 27
45 45 44 42 40 41 39 36 34 32 29 23 16 14 16 18 16 13 13 10 9 6 6 6 8 8 7 7 8 8 8 9 10 6 5 7 14 12 13 16 13 12 15 21 21 18 16
46 43 44 48 43 43 41 38 34 34 32 25 18 17 18 17 13 12 12 10 8 6 7 6 9 9 9 9 9 8 10 11 6 5 7 13 9 10 8 6 8 12 15 17 9 7 11
45 42 46 46 46 43 42 42 36 34 30 26 22 18 18 16 15 13 13 13 8 9 11 7 8 9 10 9 9 9 6 3 9 6 8 7 5 6 8 9 9 13 8 7 7 9 18
37 52 52 46 39 33 36 42 41 37 31 29 24 18 18 17 16 15 15 16 8 12 12 10 8 6 9 10 7 6 6 6 5 2 1 5 5 6 12 17 13 6 8 8 18 26 24
33 37 41 38 32 35 39 43 40 37 31 24 19 19 18 18 17 17 17 18 14 12 10 11 8 7 4 6 3 2 2 3 4 4 7 6 12 11 10 11 11 10 14 10 13 6 11
24 23 34 28 27 21 22 25 29 28 23 19 19 20 20 18 17 17 19 19 18 14 13 11 11 9 8 6 6 5 4 6 7 8 7 12 8 8 12 12 15 19 20 19 18 24 15
27 23 24 27 27 26 27 24 23 22 20 21 21 21 20 19 19 20 21 19 17 15 15 13 11 11 10 8 7 6 7 8 6 11 9 13 10 19 22 21 13 11 13 15 18 19 20
28 29 27 24 24 23 23 22 22 21 21 21 22 22 18 20 20 21 19 18 16 16 15 12 11 11 9 9 4 5 8 9 11 11 10 18 6 17 13 3 5 6 8 7 14 21 32
23 24 23 24 23 22 22 21 21 23 22 22 22 19 18 21 21 17 19 17 18 17 16 14 12 12 11 10 10 7 10 11 14 16 17 19 11 17 23 28 27 36 34 31 30 33 38
16 18 21 20 19 20 20 21 21 22 22 23 23 19 19 20 23 20 18 13 18 18 16 14 14 14 11 8 10 12 13 15 17 17 16 12 20 23 27 29 31 35 36 30 33 42 43
19 16 15 18 20 21 21 22 22 22 21 22 22 19 20 18 15 20 20 21 18 16 16 17 15 12 11 12 12 12 15 14 13 16 13 12 19 22 28 27 29 35 34 34 35 36 39
17 18 18 17 18 19 19 21 21 22 21 21 21 21 17 19 18 18 21 20 18 17 17 17 14 13 13 14 14 15 15 17 18 18 15 16 13 14 19 16 24 23 14 17 26 26 27
16 16 17 18 17 18 19 20 19 21 20 20 20 19 19 17 18 19 17 19 18 17 17 13 12 14 14 13 14 15 17 14 15 9 13 15 13 14 24 20 11 6 19 26 29 26 24
15 15 16 17 18 18 18 18 19 20 20 19 18 18 18 18 17 18 19 18 17 18 17 15 15 16 13 12 13 9 8 6 7 7 8 12 13 16 10 16 31 26 15 19 23 28 24
13 14 14 16 17 19 19 19 18 18 18 18 18 18 18 17 19 19 19 19 19 17 15 15 15 13 11 11 9 4 2 3 3 6 9 13 16 20 17 19 13 18 21 16 18 36 19
11 13 14 13 15 16 17 18 17 17 16 16 16 16 17 17 17 19 20 19 17 16 15 13 13 11 10 10 8 4 4 6 2 6 7 10 15 23 24 27 27 26 25 19 19 29 21
7 10 12 13 13 13 14 14 15 16 15 15 15 15 16 17 16 18 17 16 14 15 14 12 10 12 9 7 5 5 5 5 9 11 11 11 10 16 20 24 22 15 24 26 34 38 32
8 6 8 10 11 12 12 12 13 14 15 15 15 15 16 17 13 17 16 17 16 16 16 14 12 8 6 6 6 6 10 11 11 9 8 9 13 21 21 27 39 45 46 51 53 57 56
Wind_Direction
206 206 207 207 205 202 204 209 211 212 217 221 228 231 237 242 244 248 253 257 262 268 276 282 284 286 286 282 276 280 283 283 283 286 290 293 294 296 292 291 296 292 289 295 296 299 301
207 205 209 208 207 202 204 207 212 215 220 224 227 231 235 241 247 252 255 260 266 276 288 299 303 301 298 296 284 284 287 284 284 285 283 282 279 282 283 285 284 278 287 290 295 298 301
205 205 206 209 208 206 202 205 209 213 218 223 226 231 235 241 245 250 257 264 272 280 293 300 300 295 291 287 284 281 278 278 279 279 279 279 280 283 284 291 289 290 296 293 295 285 297
205 205 205 209 208 208 202 204 206 211 217 222 226 232 237 245 253 257 263 270 276 285 288 296 304 301 290 283 278 274 273 273 273 272 271 272 272 277 282 288 294 300 290 294 266 299 301
204 206 205 208 208 208 202 201 205 210 216 223 228 233 239 244 255 263 269 273 282 292 294 305 305 304 293 284 273 270 270 269 268 268 267 267 271 275 286 289 288 276 288 291 293 296 297
202 204 204 209 207 208 201 200 205 210 215 222 231 238 245 249 255 264 267 273 285 296 301 305 299 296 282 284 272 266 274 275 268 264 265 265 276 277 285 284 286 298 291 291 294 298 297
201 204 205 207 206 208 201 200 205 209 214 221 232 239 242 247 253 260 265 266 283 294 298 295 288 282 281 280 282 280 278 280 276 263 268 270 260 275 277 279 286 292 290 292 295 298 302
205 203 205 206 206 207 199 202 205 209 213 218 226 240 246 253 259 265 268 267 270 281 287 290 284 276 271 273 277 280 276 266 267 253 257 274 277 276 284 296 297 294 297 294 296 299 298
206 206 207 205 208 204 198 202 207 213 217 222 230 235 242 257 268 270 273 273 275 275 277 277 273 269 270 272 275 277 279 280 272 266 263 265 270 279 292 293 296 294 293 301 299 301 299
207 211 208 207 210 204 199 203 209 214 219 221 229 242 260 265 275 273 272 263 259 253 246 258 251 258 258 263 265 276 290 308 341 343 301 268 267 292 298 296 298 296 295 296 300 305 300
208 210 210 209 212 202 200 204 210 213 219 229 241 248 255 255 270 278 267 252 234 214 251 248 228 242 240 229 245 268 291 311 314 322 352 295 315 309 307 293 304 295 298 299 298 292 296
208 206 203 205 208 212 205 206 212 217 223 230 242 249 255 260 273 268 248 226 203 197 232 230 217 216 220 224 246 266 288 296 312 314 306 283 307 294 283 298 297 308 309 301 291 283 275
207 202 206 208 209 215 213 212 218 224 228 234 249 254 254 261 256 243 230 199 191 216 230 231 219 215 226 237 254 268 281 285 279 317 293 308 282 290 281 311 313 319 317 309 281 234 274
205 202 207 210 218 219 214 218 217 226 230 241 247 247 249 246 234 223 213 195 217 229 211 215 211 220 230 242 262 269 278 324 293 296 301 307 248 257 283 293 293 310 299 290 296 301 301
225 217 211 224 220 214 216 219 228 227 233 238 236 237 234 229 221 212 202 203 220 228 225 214 214 222 240 244 243 271 267 260 277 280 338 319 265 261 267 283 280 284 273 277 282 279 273
214 207 212 216 218 222 225 229 223 224 218 213 217 221 219 216 212 207 204 215 230 227 226 218 206 219 206 221 222 195 233 253 272 284 319 298 297 276 282 295 279 253 282 282 232 276 275
181 186 182 172 169 184 189 190 197 202 201 200 207 208 209 205 206 207 210 223 231 233 224 213 218 229 227 231 238 256 235 263 276 306 315 307 275 285 296 281 281 279 271 258 268 260 271
172 176 178 174 182 186 188 186 192 194 192 197 199 203 205 202 203 210 216 226 231 230 225 226 230 229 231 244 264 251 240 245 277 298 311 308 290 287 284 281 271 275 258 245 252 276 270
171 170 179 183 178 181 187 185 188 192 191 195 198 202 203 202 206 212 220 225 226 223 222 225 229 234 238 245 265 250 268 281 293 305 302 307 294 310 303 268 271 286 269 262 275 278 270
175 170 177 181 182 182 190 183 193 191 192 192 199 198 202 210 215 216 221 222 222 223 224 230 239 245 253 258 265 264 274 294 303 302 309 305 273 259 272 285 289 286 280 282 286 280 279
183 180 177 185 186 187 191 188 194 197 193 196 197 204 205 212 215 217 216 218 227 228 228 234 240 244 256 267 275 272 281 295 306 309 304 281 276 279 282 284 286 284 288 290 279 272 268
181 192 193 193 192 194 189 196 190 201 199 201 204 201 207 212 213 222 221 222 229 236 235 241 242 249 250 257 260 272 294 303 302 305 301 281 281 295 292 289 285 288 289 288 282 285 285
183 189 191 199 200 198 197 197 197 199 202 204 206 209 208 211 215 219 224 226 229 234 236 241 242 252 261 268 279 283 295 296 290 292 283 274 280 300 289 295 298 293 291 288 291 284 285
190 194 195 196 204 205 202 198 200 199 202 204 205 208 213 216 215 220 230 231 234 233 234 238 244 253 268 275 284 294 295 292 287 277 266 270 263 269 284 303 270 258 290 292 286 293 292
192 198 201 200 203 206 208 207 202 202 201 204 207 210 214 218 224 225 229 233 234 235 234 237 246 259 267 279 293 294 300 299 298 270 270 277 251 259 263 279 287 301 301 294 291 287 283
197 199 204 204 205 206 204 208 212 206 206 205 209 213 217 223 227 228 230 231 230 228 233 239 246 253 263 274 281 269 297 272 287 297 263 242 244 243 267 286 282 291 303 299 287 281 301
203 203 200 209 214 212 210 208 208 213 212 209 214 214 220 223 229 225 228 227 224 222 233 239 245 250 262 262 270 268 259 254 262 257 246 255 257 250 267 267 277 297 299 292 270 288 297
207 210 211 207 208 214 215 214 214 211 213 213 211 214 219 218 222 225 225 225 226 226 228 238 233 247 248 248 251 258 251 259 268 260 270 254 261 268 274 275 279 318 304 285 282 284 281
219 197 209 218 215 212 214 216 219 222 217 213 215 214 216 222 227 227 229 232 225 229 232 228 232 225 225 220 245 270 276 281 284 289 268 268 257 284 272 273 288 298 297 295 289 282 287